Year,Month,Day,Hour,Minute,Value (Times are PST for temperature in C)
2009,07,28,00,00,20.50
2009,07,28,00,01,20.50
2009,07,28,00,02,20.50
2009,07,28,00,03,20.50
2009,07,28,00,04,20.50
2009,07,28,00,05,20.50
2009,07,28,00,06,20.50
2009,07,28,00,07,20.60
2009,07,28,00,08,20.60
2009,07,28,00,09,20.60
2009,07,28,00,10,20.60
2009,07,28,00,11,20.60
2009,07,28,00,12,20.60
2009,07,28,00,13,20.60
2009,07,28,00,14,20.60
2009,07,28,00,15,20.60
2009,07,28,00,16,20.70
2009,07,28,00,17,20.70
2009,07,28,00,18,20.70
2009,07,28,00,19,20.70
2009,07,28,00,20,20.70
2009,07,28,00,21,20.70
2009,07,28,00,22,20.70
2009,07,28,00,23,20.70
2009,07,28,00,24,20.70
2009,07,28,00,25,20.70
2009,07,28,00,26,20.70
2009,07,28,00,27,20.70
2009,07,28,00,28,20.70
2009,07,28,00,29,20.70
2009,07,28,00,30,20.70
2009,07,28,00,31,20.70
2009,07,28,00,32,20.70
2009,07,28,00,33,20.70
2009,07,28,00,34,20.70
2009,07,28,00,35,20.60
2009,07,28,00,36,20.60
2009,07,28,00,37,20.60
2009,07,28,00,38,20.60
2009,07,28,00,39,20.60
2009,07,28,00,40,20.60
2009,07,28,00,41,20.60
2009,07,28,00,42,20.60
2009,07,28,00,43,20.60
2009,07,28,00,44,20.60
2009,07,28,00,45,20.60
2009,07,28,00,46,20.60
2009,07,28,00,47,20.60
2009,07,28,00,48,20.60
2009,07,28,00,49,20.60
2009,07,28,00,50,20.60
2009,07,28,00,51,20.60
2009,07,28,00,52,20.70
2009,07,28,00,53,20.70
2009,07,28,00,54,20.70
2009,07,28,00,55,20.70
2009,07,28,00,56,20.70
2009,07,28,00,57,20.80
2009,07,28,00,58,20.80
2009,07,28,00,59,20.70
2009,07,28,01,00,20.70
2009,07,28,01,01,20.70
2009,07,28,01,02,20.70
2009,07,28,01,03,20.70
2009,07,28,01,04,20.60
2009,07,28,01,05,20.60
2009,07,28,01,06,20.60
2009,07,28,01,07,20.60
2009,07,28,01,08,20.60
2009,07,28,01,09,20.50
2009,07,28,01,10,20.50
2009,07,28,01,11,20.50
2009,07,28,01,12,20.50
2009,07,28,01,13,20.50
2009,07,28,01,14,20.50
2009,07,28,01,15,20.50
2009,07,28,01,16,20.50
2009,07,28,01,17,20.50
2009,07,28,01,18,20.50
2009,07,28,01,19,20.50
2009,07,28,01,20,20.40
2009,07,28,01,21,20.40
2009,07,28,01,22,20.40
2009,07,28,01,23,20.40
2009,07,28,01,24,20.40
2009,07,28,01,25,20.40
2009,07,28,01,26,20.30
2009,07,28,01,27,20.30
2009,07,28,01,28,20.30
2009,07,28,01,29,20.30
2009,07,28,01,30,20.30
2009,07,28,01,31,20.30
2009,07,28,01,32,20.30
2009,07,28,01,33,20.20
2009,07,28,01,34,20.20
2009,07,28,01,35,20.20
2009,07,28,01,36,20.20
2009,07,28,01,37,20.20
2009,07,28,01,38,20.20
2009,07,28,01,39,20.20
2009,07,28,01,40,20.20
2009,07,28,01,41,20.20
2009,07,28,01,42,20.20
2009,07,28,01,43,20.20
2009,07,28,01,44,20.20
2009,07,28,01,45,20.20
2009,07,28,01,46,20.20
2009,07,28,01,47,20.20
2009,07,28,01,48,20.20
2009,07,28,01,49,20.20
2009,07,28,01,50,20.20
2009,07,28,01,51,20.20
2009,07,28,01,52,20.20
2009,07,28,01,53,20.20
2009,07,28,01,54,20.20
2009,07,28,01,55,20.10
2009,07,28,01,56,20.10
2009,07,28,01,57,20.10
2009,07,28,01,58,20.10
2009,07,28,01,59,20.10
2009,07,28,02,00,20.10
2009,07,28,02,01,20.10
2009,07,28,02,02,20.10
2009,07,28,02,03,20.10
2009,07,28,02,04,20.10
2009,07,28,02,05,20.00
2009,07,28,02,06,19.90
2009,07,28,02,07,19.90
2009,07,28,02,08,19.90
2009,07,28,02,09,19.90
2009,07,28,02,10,19.90
2009,07,28,02,11,19.90
2009,07,28,02,12,19.90
2009,07,28,02,13,19.90
2009,07,28,02,14,19.90
2009,07,28,02,15,19.90
2009,07,28,02,16,19.90
2009,07,28,02,17,20.00
2009,07,28,02,18,20.10
2009,07,28,02,19,20.10
2009,07,28,02,20,20.10
2009,07,28,02,21,20.10
2009,07,28,02,22,20.10
2009,07,28,02,23,20.10
2009,07,28,02,24,20.10
2009,07,28,02,25,20.00
2009,07,28,02,26,19.90
2009,07,28,02,27,19.90
2009,07,28,02,28,19.90
2009,07,28,02,29,19.90
2009,07,28,02,30,19.90
2009,07,28,02,31,19.90
2009,07,28,02,32,19.90
2009,07,28,02,33,19.90
2009,07,28,02,34,19.90
2009,07,28,02,35,19.90
2009,07,28,02,36,19.90
2009,07,28,02,37,19.90
2009,07,28,02,38,19.90
2009,07,28,02,39,19.90
2009,07,28,02,40,19.90
2009,07,28,02,41,19.90
2009,07,28,02,42,19.90
2009,07,28,02,43,19.90
2009,07,28,02,44,19.90
2009,07,28,02,45,19.90
2009,07,28,02,46,19.90
2009,07,28,02,47,19.90
2009,07,28,02,48,19.90
2009,07,28,02,49,19.90
2009,07,28,02,50,19.90
2009,07,28,02,51,19.90
2009,07,28,02,52,19.90
2009,07,28,02,53,19.90
2009,07,28,02,54,19.90
2009,07,28,02,55,19.90
2009,07,28,02,56,19.90
2009,07,28,02,57,19.90
2009,07,28,02,58,19.90
2009,07,28,02,59,19.90
2009,07,28,03,00,19.80
2009,07,28,03,01,19.80
2009,07,28,03,02,19.80
2009,07,28,03,03,19.80
2009,07,28,03,04,19.90
2009,07,28,03,05,19.90
2009,07,28,03,06,19.90
2009,07,28,03,07,19.80
2009,07,28,03,08,19.80
2009,07,28,03,09,19.80
2009,07,28,03,10,19.80
2009,07,28,03,11,19.80
2009,07,28,03,12,19.80
2009,07,28,03,13,19.80
2009,07,28,03,14,19.80
2009,07,28,03,15,19.80
2009,07,28,03,16,19.80
2009,07,28,03,17,19.80
2009,07,28,03,18,19.80
2009,07,28,03,19,19.80
2009,07,28,03,20,19.80
2009,07,28,03,21,19.80
2009,07,28,03,22,19.80
2009,07,28,03,23,19.80
2009,07,28,03,24,19.80
2009,07,28,03,25,19.80
2009,07,28,03,26,19.80
2009,07,28,03,27,19.70
2009,07,28,03,28,19.70
2009,07,28,03,29,19.70
2009,07,28,03,30,19.70
2009,07,28,03,31,19.70
2009,07,28,03,32,19.70
2009,07,28,03,33,19.70
2009,07,28,03,34,19.70
2009,07,28,03,35,19.70
2009,07,28,03,36,19.70
2009,07,28,03,37,19.60
2009,07,28,03,38,19.60
2009,07,28,03,39,19.60
2009,07,28,03,40,19.60
2009,07,28,03,41,19.50
2009,07,28,03,42,19.50
2009,07,28,03,43,19.40
2009,07,28,03,44,19.40
2009,07,28,03,45,19.40
2009,07,28,03,46,19.40
2009,07,28,03,47,19.30
2009,07,28,03,48,19.30
2009,07,28,03,49,19.20
2009,07,28,03,50,19.10
2009,07,28,03,51,18.90
2009,07,28,03,52,18.70
2009,07,28,03,53,18.50
2009,07,28,03,54,18.30
2009,07,28,03,55,18.20
2009,07,28,03,56,18.00
2009,07,28,03,57,17.90
2009,07,28,03,58,17.80
2009,07,28,03,59,17.70
2009,07,28,04,00,17.60
2009,07,28,04,01,17.50
2009,07,28,04,02,17.50
2009,07,28,04,03,17.40
2009,07,28,04,04,17.40
2009,07,28,04,05,17.30
2009,07,28,04,06,17.30
2009,07,28,04,07,17.30
2009,07,28,04,08,17.30
2009,07,28,04,09,17.30
2009,07,28,04,10,17.30
2009,07,28,04,11,17.20
2009,07,28,04,12,17.20
2009,07,28,04,13,17.20
2009,07,28,04,14,17.20
2009,07,28,04,15,17.20
2009,07,28,04,16,17.20
2009,07,28,04,17,17.20
2009,07,28,04,18,17.20
2009,07,28,04,19,17.20
2009,07,28,04,20,17.20
2009,07,28,04,21,17.20
2009,07,28,04,22,17.20
2009,07,28,04,23,17.20
2009,07,28,04,24,17.20
2009,07,28,04,25,17.20
2009,07,28,04,26,17.20
2009,07,28,04,27,17.20
2009,07,28,04,28,17.20
2009,07,28,04,29,17.20
2009,07,28,04,30,17.20
2009,07,28,04,31,17.20
2009,07,28,04,32,17.20
2009,07,28,04,33,17.20
2009,07,28,04,34,17.20
2009,07,28,04,35,17.20
2009,07,28,04,36,17.20
2009,07,28,04,37,17.20
2009,07,28,04,38,17.20
2009,07,28,04,39,17.20
2009,07,28,04,40,17.20
2009,07,28,04,41,17.20
2009,07,28,04,42,17.20
2009,07,28,04,43,17.20
2009,07,28,04,44,17.20
2009,07,28,04,45,17.20
2009,07,28,04,46,17.20
2009,07,28,04,47,17.20
2009,07,28,04,48,17.20
2009,07,28,04,49,17.10
2009,07,28,04,50,17.10
2009,07,28,04,51,17.10
2009,07,28,04,52,17.10
2009,07,28,04,53,17.10
2009,07,28,04,54,17.10
2009,07,28,04,55,17.10
2009,07,28,04,56,17.10
2009,07,28,04,57,17.10
2009,07,28,04,58,17.10
2009,07,28,04,59,17.10
2009,07,28,05,00,17.10
2009,07,28,05,01,17.10
2009,07,28,05,02,17.00
2009,07,28,05,03,17.00
2009,07,28,05,04,17.00
2009,07,28,05,05,17.00
2009,07,28,05,06,17.00
2009,07,28,05,07,17.00
2009,07,28,05,08,17.00
2009,07,28,05,09,17.00
2009,07,28,05,10,17.00
2009,07,28,05,11,16.90
2009,07,28,05,12,16.90
2009,07,28,05,13,16.90
2009,07,28,05,14,16.90
2009,07,28,05,15,16.90
2009,07,28,05,16,16.90
2009,07,28,05,17,16.90
2009,07,28,05,18,16.90
2009,07,28,05,19,16.90
2009,07,28,05,20,16.80
2009,07,28,05,21,16.80
2009,07,28,05,22,16.80
2009,07,28,05,23,16.80
2009,07,28,05,24,16.80
2009,07,28,05,25,16.80
2009,07,28,05,26,16.80
2009,07,28,05,27,16.80
2009,07,28,05,28,16.80
2009,07,28,05,29,16.80
2009,07,28,05,30,16.80
2009,07,28,05,31,16.80
2009,07,28,05,32,16.70
2009,07,28,05,33,16.70
2009,07,28,05,34,16.70
2009,07,28,05,35,16.60
2009,07,28,05,36,16.50
2009,07,28,05,37,16.40
2009,07,28,05,38,16.40
2009,07,28,05,39,16.40
2009,07,28,05,40,16.30
2009,07,28,05,41,16.20
2009,07,28,05,42,16.20
2009,07,28,05,43,16.10
2009,07,28,05,44,16.00
2009,07,28,05,45,15.90
2009,07,28,05,46,15.80
2009,07,28,05,47,15.80
2009,07,28,05,48,15.70
2009,07,28,05,49,15.70
2009,07,28,05,50,15.60
2009,07,28,05,51,15.60
2009,07,28,05,52,15.60
2009,07,28,05,53,15.60
2009,07,28,05,54,15.60
2009,07,28,05,55,15.50
2009,07,28,05,56,15.50
2009,07,28,05,57,15.50
2009,07,28,05,58,15.50
2009,07,28,05,59,15.50
2009,07,28,06,00,15.40
2009,07,28,06,01,15.40
2009,07,28,06,02,15.40
2009,07,28,06,03,15.40
2009,07,28,06,04,15.40
2009,07,28,06,05,15.40
2009,07,28,06,06,15.40
2009,07,28,06,07,15.40
2009,07,28,06,08,15.40
2009,07,28,06,09,15.40
2009,07,28,06,10,15.50
2009,07,28,06,11,15.50
2009,07,28,06,12,15.50
2009,07,28,06,13,15.50
2009,07,28,06,14,15.50
2009,07,28,06,15,15.60
2009,07,28,06,16,15.60
2009,07,28,06,17,15.60
2009,07,28,06,18,15.60
2009,07,28,06,19,15.70
2009,07,28,06,20,15.70
2009,07,28,06,21,15.80
2009,07,28,06,22,15.80
2009,07,28,06,23,15.80
2009,07,28,06,24,15.90
2009,07,28,06,25,15.90
2009,07,28,06,26,16.00
2009,07,28,06,27,16.10
2009,07,28,06,28,16.10
2009,07,28,06,29,16.10
2009,07,28,06,30,16.20
2009,07,28,06,31,16.20
2009,07,28,06,32,16.20
2009,07,28,06,33,16.30
2009,07,28,06,34,16.30
2009,07,28,06,35,16.40
2009,07,28,06,36,16.40
2009,07,28,06,37,16.40
2009,07,28,06,38,16.40
2009,07,28,06,39,16.50
2009,07,28,06,40,16.60
2009,07,28,06,41,16.60
2009,07,28,06,42,16.70
2009,07,28,06,43,16.70
2009,07,28,06,44,16.70
2009,07,28,06,45,16.70
2009,07,28,06,46,16.80
2009,07,28,06,47,16.80
2009,07,28,06,48,17.00
2009,07,28,06,49,17.00
2009,07,28,06,50,17.10
2009,07,28,06,51,17.20
2009,07,28,06,52,17.30
2009,07,28,06,53,17.30
2009,07,28,06,54,17.30
2009,07,28,06,55,17.40
2009,07,28,06,56,17.40
2009,07,28,06,57,17.50
2009,07,28,06,58,17.50
2009,07,28,06,59,17.60
2009,07,28,07,00,17.60
2009,07,28,07,01,17.70
2009,07,28,07,02,17.70
2009,07,28,07,03,17.80
2009,07,28,07,04,17.80
2009,07,28,07,05,17.90
2009,07,28,07,06,17.90
2009,07,28,07,07,18.00
2009,07,28,07,08,18.10
2009,07,28,07,09,18.10
2009,07,28,07,10,18.20
2009,07,28,07,11,18.20
2009,07,28,07,12,18.30
2009,07,28,07,13,18.40
2009,07,28,07,14,18.50
2009,07,28,07,15,18.60
2009,07,28,07,16,18.60
2009,07,28,07,17,18.60
2009,07,28,07,18,18.60
2009,07,28,07,19,18.60
2009,07,28,07,20,18.70
2009,07,28,07,21,18.70
2009,07,28,07,22,18.80
2009,07,28,07,23,18.70
2009,07,28,07,24,18.70
2009,07,28,07,25,18.70
2009,07,28,07,26,18.70
2009,07,28,07,27,18.70
2009,07,28,07,28,18.70
2009,07,28,07,29,18.60
2009,07,28,07,30,18.50
2009,07,28,07,31,18.50
2009,07,28,07,32,18.50
2009,07,28,07,33,18.60
2009,07,28,07,34,18.60
2009,07,28,07,35,18.70
2009,07,28,07,36,18.70
2009,07,28,07,37,18.80
2009,07,28,07,38,18.90
2009,07,28,07,39,18.90
2009,07,28,07,40,18.90
2009,07,28,07,41,18.90
2009,07,28,07,42,18.90
2009,07,28,07,43,18.90
2009,07,28,07,44,19.00
2009,07,28,07,45,19.10
2009,07,28,07,46,19.10
2009,07,28,07,47,19.10
2009,07,28,07,48,19.20
2009,07,28,07,49,19.30
2009,07,28,07,50,19.40
2009,07,28,07,51,19.50
2009,07,28,07,52,19.60
2009,07,28,07,53,19.60
2009,07,28,07,54,19.80
2009,07,28,07,55,19.90
2009,07,28,07,56,20.00
2009,07,28,07,57,20.10
2009,07,28,07,58,20.20
2009,07,28,07,59,20.20
2009,07,28,08,00,20.20
2009,07,28,08,01,20.30
2009,07,28,08,02,20.40
2009,07,28,08,03,20.50
2009,07,28,08,04,20.50
2009,07,28,08,05,20.60
2009,07,28,08,06,20.70
2009,07,28,08,07,20.80
2009,07,28,08,08,20.90
2009,07,28,08,09,21.00
2009,07,28,08,10,21.00
2009,07,28,08,11,21.10
2009,07,28,08,12,21.10
2009,07,28,08,13,21.10
2009,07,28,08,14,21.20
2009,07,28,08,15,21.20
2009,07,28,08,16,21.30
2009,07,28,08,17,21.30
2009,07,28,08,18,21.30
2009,07,28,08,19,21.30
2009,07,28,08,20,21.30
2009,07,28,08,21,21.40
2009,07,28,08,22,21.60
2009,07,28,08,23,21.60
2009,07,28,08,24,21.60
2009,07,28,08,25,21.60
2009,07,28,08,26,21.70
2009,07,28,08,27,21.70
2009,07,28,08,28,21.70
2009,07,28,08,29,21.80
2009,07,28,08,30,21.80
2009,07,28,08,31,21.90
2009,07,28,08,32,22.00
2009,07,28,08,33,22.00
2009,07,28,08,34,22.10
2009,07,28,08,35,22.20
2009,07,28,08,36,22.30
2009,07,28,08,37,22.30
2009,07,28,08,38,22.40
2009,07,28,08,39,22.50
2009,07,28,08,40,22.50
2009,07,28,08,41,22.60
2009,07,28,08,42,22.60
2009,07,28,08,43,22.70
2009,07,28,08,44,22.70
2009,07,28,08,45,22.80
2009,07,28,08,46,22.80
2009,07,28,08,47,22.80
2009,07,28,08,48,22.80
2009,07,28,08,49,22.70
2009,07,28,08,50,22.60
2009,07,28,08,51,22.60
2009,07,28,08,52,22.50
2009,07,28,08,53,22.40
2009,07,28,08,54,22.20
2009,07,28,08,55,22.10
2009,07,28,08,56,22.00
2009,07,28,08,57,21.90
2009,07,28,08,58,21.80
2009,07,28,08,59,21.70
2009,07,28,09,00,21.60
2009,07,28,09,01,21.40
2009,07,28,09,02,21.30
2009,07,28,09,03,21.30
2009,07,28,09,04,21.30
2009,07,28,09,05,21.20
2009,07,28,09,06,21.20
2009,07,28,09,07,21.30
2009,07,28,09,08,21.30
2009,07,28,09,09,21.40
2009,07,28,09,10,21.30
2009,07,28,09,11,21.30
2009,07,28,09,12,21.20
2009,07,28,09,13,21.10
2009,07,28,09,14,21.00
2009,07,28,09,15,20.90
2009,07,28,09,16,21.00
2009,07,28,09,17,21.00
2009,07,28,09,18,21.10
2009,07,28,09,19,21.20
2009,07,28,09,20,21.30
2009,07,28,09,21,21.50
2009,07,28,09,22,21.60
2009,07,28,09,23,21.70
2009,07,28,09,24,21.80
2009,07,28,09,25,21.80
2009,07,28,09,26,21.90
2009,07,28,09,27,22.00
2009,07,28,09,28,22.00
2009,07,28,09,29,22.10
2009,07,28,09,30,22.10
2009,07,28,09,31,22.10
2009,07,28,09,32,22.10
2009,07,28,09,33,22.10
2009,07,28,09,34,22.10
2009,07,28,09,35,22.10
2009,07,28,09,36,22.10
2009,07,28,09,37,22.20
2009,07,28,09,38,22.30
2009,07,28,09,39,22.40
2009,07,28,09,40,22.50
2009,07,28,09,41,22.60
2009,07,28,09,42,22.70
2009,07,28,09,43,22.80
2009,07,28,09,44,22.90
2009,07,28,09,45,22.90
2009,07,28,09,46,22.90
2009,07,28,09,47,23.10
2009,07,28,09,48,23.10
2009,07,28,09,49,23.10
2009,07,28,09,50,23.10
2009,07,28,09,51,23.10
2009,07,28,09,52,23.00
2009,07,28,09,53,22.90
2009,07,28,09,54,23.00
2009,07,28,09,55,23.10
2009,07,28,09,56,23.10
2009,07,28,09,57,23.10
2009,07,28,09,58,23.20
2009,07,28,09,59,23.20
2009,07,28,10,00,23.30
2009,07,28,10,01,23.40
2009,07,28,10,02,23.50
2009,07,28,10,03,23.70
2009,07,28,10,04,23.70
2009,07,28,10,05,23.70
2009,07,28,10,06,23.80
2009,07,28,10,07,23.90
2009,07,28,10,08,24.00
2009,07,28,10,09,24.10
2009,07,28,10,10,24.20
2009,07,28,10,11,24.30
2009,07,28,10,12,24.40
2009,07,28,10,13,24.50
2009,07,28,10,14,24.70
2009,07,28,10,15,25.00
2009,07,28,10,16,25.40
2009,07,28,10,17,25.60
2009,07,28,10,18,25.80
2009,07,28,10,19,26.00
2009,07,28,10,20,26.30
2009,07,28,10,21,26.60
2009,07,28,10,22,26.80
2009,07,28,10,23,27.10
2009,07,28,10,24,27.30
2009,07,28,10,25,27.50
2009,07,28,10,26,27.70
2009,07,28,10,27,27.80
2009,07,28,10,28,28.00
2009,07,28,10,29,28.20
2009,07,28,10,30,28.30
2009,07,28,10,31,28.40
2009,07,28,10,32,28.60
2009,07,28,10,33,28.70
2009,07,28,10,34,28.80
2009,07,28,10,35,28.90
2009,07,28,10,36,28.90
2009,07,28,10,37,28.90
2009,07,28,10,38,29.00
2009,07,28,10,39,29.10
2009,07,28,10,40,29.10
2009,07,28,10,41,29.20
2009,07,28,10,42,29.20
2009,07,28,10,43,29.30
2009,07,28,10,44,29.30
2009,07,28,10,45,29.10
2009,07,28,10,46,28.70
2009,07,28,10,47,28.20
2009,07,28,10,48,27.80
2009,07,28,10,49,27.70
2009,07,28,10,50,27.30
2009,07,28,10,51,26.90
2009,07,28,10,52,26.80
2009,07,28,10,53,26.60
2009,07,28,10,54,26.40
2009,07,28,10,55,26.30
2009,07,28,10,56,26.20
2009,07,28,10,57,26.10
2009,07,28,10,58,26.00
2009,07,28,10,59,26.00
2009,07,28,11,00,25.90
2009,07,28,11,01,25.90
2009,07,28,11,02,25.90
2009,07,28,11,03,26.00
2009,07,28,11,04,26.10
2009,07,28,11,05,26.20
2009,07,28,11,06,26.40
2009,07,28,11,07,26.70
2009,07,28,11,08,26.90
2009,07,28,11,09,27.20
2009,07,28,11,10,27.30
2009,07,28,11,11,27.30
2009,07,28,11,12,27.30
2009,07,28,11,13,27.30
2009,07,28,11,14,27.30
2009,07,28,11,15,27.40
2009,07,28,11,16,27.60
2009,07,28,11,17,27.80
2009,07,28,11,18,28.00
2009,07,28,11,19,28.30
2009,07,28,11,20,28.60
2009,07,28,11,21,28.80
2009,07,28,11,22,29.00
2009,07,28,11,23,29.10
2009,07,28,11,24,29.30
2009,07,28,11,25,29.40
2009,07,28,11,26,29.50
2009,07,28,11,27,29.70
2009,07,28,11,28,29.80
2009,07,28,11,29,30.00
2009,07,28,11,30,30.10
2009,07,28,11,31,30.20
2009,07,28,11,32,30.30
2009,07,28,11,33,30.30
2009,07,28,11,34,30.40
2009,07,28,11,35,30.40
2009,07,28,11,36,30.30
2009,07,28,11,37,30.30
2009,07,28,11,38,30.30
2009,07,28,11,39,30.30
2009,07,28,11,40,30.40
2009,07,28,11,41,30.50
2009,07,28,11,42,30.60
2009,07,28,11,43,30.80
2009,07,28,11,44,30.90
2009,07,28,11,45,31.00
2009,07,28,11,46,31.10
2009,07,28,11,47,31.20
2009,07,28,11,48,31.20
2009,07,28,11,49,31.20
2009,07,28,11,50,31.20
2009,07,28,11,51,31.10
2009,07,28,11,52,31.10
2009,07,28,11,53,30.60
2009,07,28,11,54,30.10
2009,07,28,11,55,29.60
2009,07,28,11,56,29.20
2009,07,28,11,57,29.10
2009,07,28,11,58,29.10
2009,07,28,11,59,29.00
2009,07,28,12,00,28.80
2009,07,28,12,01,28.50
2009,07,28,12,02,27.90
2009,07,28,12,03,27.50
2009,07,28,12,04,27.30
2009,07,28,12,05,27.10
2009,07,28,12,06,27.10
2009,07,28,12,07,27.10
2009,07,28,12,08,27.10
2009,07,28,12,09,27.20
2009,07,28,12,10,27.30
2009,07,28,12,11,27.30
2009,07,28,12,12,27.30
2009,07,28,12,13,27.30
2009,07,28,12,14,27.10
2009,07,28,12,15,26.80
2009,07,28,12,16,26.60
2009,07,28,12,17,26.50
2009,07,28,12,18,26.40
2009,07,28,12,19,26.30
2009,07,28,12,20,26.20
2009,07,28,12,21,26.10
2009,07,28,12,22,26.10
2009,07,28,12,23,26.20
2009,07,28,12,24,26.30
2009,07,28,12,25,26.50
2009,07,28,12,26,26.60
2009,07,28,12,27,26.70
2009,07,28,12,28,26.80
2009,07,28,12,29,27.00
2009,07,28,12,30,27.10
2009,07,28,12,31,26.90
2009,07,28,12,32,26.80
2009,07,28,12,33,26.60
2009,07,28,12,34,26.60
2009,07,28,12,35,26.60
2009,07,28,12,36,26.70
2009,07,28,12,37,26.70
2009,07,28,12,38,26.70
2009,07,28,12,39,26.80
2009,07,28,12,40,26.90
2009,07,28,12,41,27.10
2009,07,28,12,42,27.20
2009,07,28,12,43,27.30
2009,07,28,12,44,27.30
2009,07,28,12,45,27.20
2009,07,28,12,46,26.90
2009,07,28,12,47,26.60
2009,07,28,12,48,26.30
2009,07,28,12,49,26.20
2009,07,28,12,50,26.20
2009,07,28,12,51,26.10
2009,07,28,12,52,26.10
2009,07,28,12,53,26.10
2009,07,28,12,54,26.10
2009,07,28,12,55,26.00
2009,07,28,12,56,26.10
2009,07,28,12,57,26.10
2009,07,28,12,58,26.20
2009,07,28,12,59,26.20
2009,07,28,13,00,26.20
2009,07,28,13,01,26.20
2009,07,28,13,02,26.20
2009,07,28,13,03,26.20
2009,07,28,13,04,26.20
2009,07,28,13,05,26.30
2009,07,28,13,06,26.30
2009,07,28,13,07,26.40
2009,07,28,13,08,26.50
2009,07,28,13,09,26.60
2009,07,28,13,10,26.80
2009,07,28,13,11,27.00
2009,07,28,13,12,27.20
2009,07,28,13,13,27.30
2009,07,28,13,14,27.30
2009,07,28,13,15,27.20
2009,07,28,13,16,27.20
2009,07,28,13,17,27.10
2009,07,28,13,18,27.00
2009,07,28,13,19,26.90
2009,07,28,13,20,26.80
2009,07,28,13,21,26.90
2009,07,28,13,22,26.90
2009,07,28,13,23,27.00
2009,07,28,13,24,27.10
2009,07,28,13,25,27.20
2009,07,28,13,26,27.10
2009,07,28,13,27,27.00
2009,07,28,13,28,26.90
2009,07,28,13,29,26.70
2009,07,28,13,30,26.60
2009,07,28,13,31,26.40
2009,07,28,13,32,26.30
2009,07,28,13,33,26.20
2009,07,28,13,34,26.20
2009,07,28,13,35,26.20
2009,07,28,13,36,26.20
2009,07,28,13,37,26.20
2009,07,28,13,38,26.20
2009,07,28,13,39,26.10
2009,07,28,13,40,26.10
2009,07,28,13,41,26.20
2009,07,28,13,42,26.30
2009,07,28,13,43,26.30
2009,07,28,13,44,26.30
2009,07,28,13,45,26.40
2009,07,28,13,46,26.50
2009,07,28,13,47,26.60
2009,07,28,13,48,26.60
2009,07,28,13,49,26.40
2009,07,28,13,50,26.40
2009,07,28,13,51,26.30
2009,07,28,13,52,26.30
2009,07,28,13,53,26.40
2009,07,28,13,54,26.50
2009,07,28,13,55,26.60
2009,07,28,13,56,26.70
2009,07,28,13,57,26.80
2009,07,28,13,58,26.90
2009,07,28,13,59,26.80
2009,07,28,14,00,26.80
2009,07,28,14,01,26.90
2009,07,28,14,02,26.80
2009,07,28,14,03,26.60
2009,07,28,14,04,26.60
2009,07,28,14,05,26.60
2009,07,28,14,06,26.50
2009,07,28,14,07,26.40
2009,07,28,14,08,26.40
2009,07,28,14,09,26.40
2009,07,28,14,10,26.40
2009,07,28,14,11,26.40
2009,07,28,14,12,26.40
2009,07,28,14,13,26.50
2009,07,28,14,14,26.60
2009,07,28,14,15,26.60
2009,07,28,14,16,26.60
2009,07,28,14,17,26.70
2009,07,28,14,18,26.60
2009,07,28,14,19,26.60
2009,07,28,14,20,26.60
2009,07,28,14,21,26.60
2009,07,28,14,22,26.80
2009,07,28,14,23,26.90
2009,07,28,14,24,27.10
2009,07,28,14,25,27.20
2009,07,28,14,26,27.20
2009,07,28,14,27,27.20
2009,07,28,14,28,27.30
2009,07,28,14,29,27.30
2009,07,28,14,30,27.50
2009,07,28,14,31,27.60
2009,07,28,14,32,27.80
2009,07,28,14,33,27.90
2009,07,28,14,34,27.90
2009,07,28,14,35,27.90
2009,07,28,14,36,28.10
2009,07,28,14,37,28.00
2009,07,28,14,38,27.90
2009,07,28,14,39,27.80
2009,07,28,14,40,27.80
2009,07,28,14,41,27.70
2009,07,28,14,42,27.60
2009,07,28,14,43,27.50
2009,07,28,14,44,27.40
2009,07,28,14,45,27.50
2009,07,28,14,46,27.60
2009,07,28,14,47,27.70
2009,07,28,14,48,27.70
2009,07,28,14,49,27.80
2009,07,28,14,50,27.90
2009,07,28,14,51,28.10
2009,07,28,14,52,28.20
2009,07,28,14,53,28.20
2009,07,28,14,54,28.10
2009,07,28,14,55,28.00
2009,07,28,14,56,28.00
2009,07,28,14,57,28.00
2009,07,28,14,58,28.10
2009,07,28,14,59,28.20
2009,07,28,15,00,28.30
2009,07,28,15,01,28.40
2009,07,28,15,02,28.40
2009,07,28,15,03,28.40
2009,07,28,15,04,28.30
2009,07,28,15,05,28.30
2009,07,28,15,06,28.40
2009,07,28,15,07,28.40
2009,07,28,15,08,28.30
2009,07,28,15,09,28.30
2009,07,28,15,10,28.20
2009,07,28,15,11,28.10
2009,07,28,15,12,28.10
2009,07,28,15,13,28.20
2009,07,28,15,14,28.20
2009,07,28,15,15,28.20
2009,07,28,15,16,28.30
2009,07,28,15,17,28.30
2009,07,28,15,18,28.30
2009,07,28,15,19,28.40
2009,07,28,15,20,28.40
2009,07,28,15,21,28.40
2009,07,28,15,22,28.40
2009,07,28,15,23,28.30
2009,07,28,15,24,28.20
2009,07,28,15,25,28.10
2009,07,28,15,26,28.10
2009,07,28,15,27,28.10
2009,07,28,15,28,28.20
2009,07,28,15,29,28.20
2009,07,28,15,30,28.30
2009,07,28,15,31,28.40
2009,07,28,15,32,28.40
2009,07,28,15,33,28.50
2009,07,28,15,34,28.40
2009,07,28,15,35,28.30
2009,07,28,15,36,28.20
2009,07,28,15,37,28.30
2009,07,28,15,38,28.30
2009,07,28,15,39,28.40
2009,07,28,15,40,28.40
2009,07,28,15,41,28.40
2009,07,28,15,42,28.30
2009,07,28,15,43,28.30
2009,07,28,15,44,28.30
2009,07,28,15,45,28.40
2009,07,28,15,46,28.30
2009,07,28,15,47,28.30
2009,07,28,15,48,28.30
2009,07,28,15,49,28.30
2009,07,28,15,50,28.30
2009,07,28,15,51,28.30
2009,07,28,15,52,28.30
2009,07,28,15,53,28.40
2009,07,28,15,54,28.40
2009,07,28,15,55,28.40
2009,07,28,15,56,28.40
2009,07,28,15,57,28.40
2009,07,28,15,58,28.40
2009,07,28,15,59,28.40
2009,07,28,16,00,28.60
2009,07,28,16,01,28.60
2009,07,28,16,02,28.60
2009,07,28,16,03,28.70
2009,07,28,16,04,28.70
2009,07,28,16,05,28.70
2009,07,28,16,06,28.70
2009,07,28,16,07,28.70
2009,07,28,16,08,28.70
2009,07,28,16,09,28.70
2009,07,28,16,10,28.80
2009,07,28,16,11,28.90
2009,07,28,16,12,28.90
2009,07,28,16,13,28.90
2009,07,28,16,14,28.90
2009,07,28,16,15,28.90
2009,07,28,16,16,28.90
2009,07,28,16,17,29.00
2009,07,28,16,18,29.10
2009,07,28,16,19,29.10
2009,07,28,16,20,29.20
2009,07,28,16,21,29.20
2009,07,28,16,22,29.20
2009,07,28,16,23,29.00
2009,07,28,16,24,28.90
2009,07,28,16,25,28.90
2009,07,28,16,26,28.90
2009,07,28,16,27,28.90
2009,07,28,16,28,29.00
2009,07,28,16,29,29.10
2009,07,28,16,30,29.20
2009,07,28,16,31,29.30
2009,07,28,16,32,29.30
2009,07,28,16,33,29.30
2009,07,28,16,34,29.40
2009,07,28,16,35,29.40
2009,07,28,16,36,29.50
2009,07,28,16,37,29.60
2009,07,28,16,38,29.70
2009,07,28,16,39,29.70
2009,07,28,16,40,29.70
2009,07,28,16,41,29.70
2009,07,28,16,42,29.70
2009,07,28,16,43,29.70
2009,07,28,16,44,29.70
2009,07,28,16,45,29.70
2009,07,28,16,46,29.70
2009,07,28,16,47,29.70
2009,07,28,16,48,29.80
2009,07,28,16,49,29.90
2009,07,28,16,50,29.90
2009,07,28,16,51,30.00
2009,07,28,16,52,30.10
2009,07,28,16,53,30.10
2009,07,28,16,54,30.20
2009,07,28,16,55,30.20
2009,07,28,16,56,30.30
2009,07,28,16,57,30.30
2009,07,28,16,58,30.50
2009,07,28,16,59,30.60
2009,07,28,17,00,30.70
2009,07,28,17,01,30.70
2009,07,28,17,02,30.70
2009,07,28,17,03,30.60
2009,07,28,17,04,30.40
2009,07,28,17,05,30.40
2009,07,28,17,06,30.40
2009,07,28,17,07,30.40
2009,07,28,17,08,30.60
2009,07,28,17,09,30.60
2009,07,28,17,10,30.70
2009,07,28,17,11,30.70
2009,07,28,17,12,30.80
2009,07,28,17,13,30.90
2009,07,28,17,14,30.90
2009,07,28,17,15,31.00
2009,07,28,17,16,31.10
2009,07,28,17,17,31.10
2009,07,28,17,18,31.10
2009,07,28,17,19,31.10